Time,TemperatureF,DewpointF,PressureIn,WindDirection,WindDirectionDegrees,WindSpeedMPH,WindSpeedGustMPH,Humidity,HourlyPrecipIn,Conditions,Clouds,dailyrainin,SoftwareType,DateUTC
2013-10-24 00:01:00,42.3,37.8,29.76,WNW,296,0.0,4.0,84,0.00,,---,0.09,VWS V14.01,2013-10-24 04:01:00,
2013-10-24 00:06:00,42.2,37.7,29.76,WNW,296,0.0,3.0,84,0.00,,---,0.00,VWS V14.01,2013-10-24 04:06:00,
2013-10-24 00:11:00,42.1,37.9,29.77,WNW,296,0.0,1.0,85,0.00,,---,0.00,VWS V14.01,2013-10-24 04:11:00,
2013-10-24 00:16:00,41.9,37.7,29.76,WNW,296,0.0,2.0,85,0.00,,---,0.00,VWS V14.01,2013-10-24 04:16:00,
2013-10-24 00:21:00,41.7,37.5,29.76,WNW,296,0.0,4.0,85,0.00,,---,0.00,VWS V14.01,2013-10-24 04:21:00,
2013-10-24 00:26:00,41.5,37.3,29.77,WNW,296,0.0,2.0,85,0.00,,---,0.00,VWS V14.01,2013-10-24 04:26:00,
2013-10-24 00:31:00,41.3,37.1,29.76,WNW,296,0.0,1.0,85,0.00,,---,0.00,VWS V14.01,2013-10-24 04:31:00,
2013-10-24 00:36:00,41.1,37.2,29.77,WNW,296,0.0,2.0,86,0.00,,---,0.00,VWS V14.01,2013-10-24 04:36:00,
2013-10-24 00:41:00,40.9,37.0,29.77,WNW,296,1.0,1.0,86,0.00,,---,0.00,VWS V14.01,2013-10-24 04:41:00,
2013-10-24 00:46:00,40.6,36.8,29.77,WNW,296,0.0,0.0,86,0.00,,---,0.00,VWS V14.01,2013-10-24 04:46:00,
2013-10-24 00:51:00,40.4,36.8,29.77,WNW,296,0.0,1.0,87,0.00,,---,0.00,VWS V14.01,2013-10-24 04:51:00,
2013-10-24 00:56:00,40.2,36.7,29.77,WNW,296,1.0,1.0,87,0.00,,---,0.00,VWS V14.01,2013-10-24 04:56:00,
2013-10-24 01:01:00,40.1,36.5,29.77,WNW,296,0.0,1.0,87,0.00,,---,0.00,VWS V14.01,2013-10-24 05:01:00,
2013-10-24 01:06:00,39.8,36.2,29.78,WNW,296,0.0,3.0,87,0.00,,---,0.00,VWS V14.01,2013-10-24 05:06:00,
2013-10-24 01:11:00,39.7,36.2,29.78,WNW,296,0.0,1.0,87,0.00,,---,0.00,VWS V14.01,2013-10-24 05:11:00,
2013-10-24 01:16:00,39.5,36.2,29.78,WNW,296,1.0,1.0,88,0.00,,---,0.00,VWS V14.01,2013-10-24 05:16:00,
2013-10-24 01:21:00,39.3,36.0,29.78,WNW,296,0.0,2.0,88,0.00,,---,0.00,VWS V14.01,2013-10-24 05:21:00,
2013-10-24 01:26:00,39.1,36.1,29.78,WNW,290,3.0,4.0,89,0.00,,---,0.00,VWS V14.01,2013-10-24 05:26:00,
2013-10-24 01:31:00,39.0,36.0,29.78,WNW,300,1.0,6.0,89,0.00,,---,0.00,VWS V14.01,2013-10-24 05:31:00,
2013-10-24 01:36:00,38.9,35.9,29.79,WNW,300,1.0,3.0,89,0.00,,---,0.00,VWS V14.01,2013-10-24 05:36:00,
2013-10-24 01:41:00,38.8,36.1,29.79,WNW,297,3.0,7.0,90,0.00,,---,0.00,VWS V14.01,2013-10-24 05:41:00,
2013-10-24 01:46:00,38.9,36.5,29.79,WNW,282,7.0,8.0,91,0.00,,---,0.00,VWS V14.01,2013-10-24 05:46:00,
2013-10-24 01:51:00,38.9,36.5,29.79,WNW,291,4.0,7.0,91,0.00,,---,0.00,VWS V14.01,2013-10-24 05:51:00,
2013-10-24 01:56:00,38.9,36.5,29.79,WNW,290,0.0,6.0,91,0.00,,---,0.00,VWS V14.01,2013-10-24 05:56:00,
2013-10-24 02:00:00,38.9,36.5,29.80,WNW,290,0.0,1.0,91,0.00,,---,0.00,VWS V14.01,2013-10-24 06:00:00,
2013-10-24 02:05:00,38.9,36.5,29.80,West,275,3.0,8.0,91,0.00,,---,0.00,VWS V14.01,2013-10-24 06:05:00,
2013-10-24 02:10:00,38.9,36.5,29.80,NW,304,4.0,9.0,91,0.00,,---,0.00,VWS V14.01,2013-10-24 06:10:00,
2013-10-24 02:15:00,38.9,36.5,29.80,West,265,3.0,9.0,91,0.00,,---,0.00,VWS V14.01,2013-10-24 06:15:00,
2013-10-24 02:20:00,38.9,36.5,29.80,NW,306,6.0,7.0,91,0.00,,---,0.00,VWS V14.01,2013-10-24 06:20:00,
2013-10-24 02:25:00,39.0,36.6,29.80,West,273,4.0,7.0,91,0.00,,---,0.00,VWS V14.01,2013-10-24 06:25:00,
2013-10-24 02:30:00,39.0,36.6,29.81,WNW,292,4.0,9.0,91,0.00,,---,0.00,VWS V14.01,2013-10-24 06:30:00,
2013-10-24 02:35:00,39.0,36.6,29.81,WNW,298,0.0,2.0,91,0.00,,---,0.00,VWS V14.01,2013-10-24 06:35:00,
2013-10-24 02:40:00,38.9,36.5,29.81,WNW,298,0.0,0.0,91,0.00,,---,0.00,VWS V14.01,2013-10-24 06:40:00,
2013-10-24 02:45:00,38.8,36.1,29.81,WNW,298,0.0,0.0,90,0.00,,---,0.00,VWS V14.01,2013-10-24 06:45:00,
2013-10-24 02:50:00,38.7,36.0,29.81,WNW,298,0.0,1.0,90,0.00,,---,0.00,VWS V14.01,2013-10-24 06:50:00,
2013-10-24 02:55:00,38.6,35.9,29.82,WNW,298,2.0,3.0,90,0.00,,---,0.00,VWS V14.01,2013-10-24 06:55:00,
2013-10-24 03:00:00,38.4,35.7,29.81,WNW,295,3.0,4.0,90,0.00,,---,0.00,VWS V14.01,2013-10-24 07:00:00,
2013-10-24 03:05:00,38.4,35.7,29.82,WNW,295,2.0,2.0,90,0.00,,---,0.00,VWS V14.01,2013-10-24 07:05:00,
2013-10-24 03:10:00,38.3,35.9,29.82,WNW,295,3.0,6.0,91,0.00,,---,0.00,VWS V14.01,2013-10-24 07:10:00,
2013-10-24 03:15:00,38.2,35.8,29.82,WNW,295,1.0,4.0,91,0.00,,---,0.00,VWS V14.01,2013-10-24 07:15:00,
2013-10-24 03:20:00,38.1,35.7,29.82,WNW,295,1.0,4.0,91,0.00,,---,0.00,VWS V14.01,2013-10-24 07:20:00,
2013-10-24 03:25:00,38.1,35.7,29.83,WNW,289,6.0,9.0,91,0.00,,---,0.00,VWS V14.01,2013-10-24 07:25:00,
2013-10-24 03:30:00,38.1,36.0,29.83,WNW,290,3.0,9.0,92,0.00,,---,0.00,VWS V14.01,2013-10-24 07:30:00,
2013-10-24 03:35:00,38.2,36.1,29.83,WNW,300,4.0,8.0,92,0.00,,---,0.00,VWS V14.01,2013-10-24 07:35:00,
2013-10-24 03:40:00,38.3,36.2,29.83,West,280,5.0,10.0,92,0.00,,---,0.00,VWS V14.01,2013-10-24 07:40:00,
2013-10-24 03:45:00,38.4,36.3,29.83,WNW,283,4.0,12.0,92,0.00,,---,0.00,VWS V14.01,2013-10-24 07:45:00,
2013-10-24 03:50:00,38.5,36.4,29.83,WNW,298,3.0,10.0,92,0.00,,---,0.00,VWS V14.01,2013-10-24 07:50:00,
2013-10-24 03:55:00,38.8,36.7,29.83,WNW,288,7.0,9.0,92,0.00,,---,0.00,VWS V14.01,2013-10-24 07:55:00,
2013-10-24 04:00:00,39.0,36.6,29.83,WNW,296,3.0,8.0,91,0.00,,---,0.00,VWS V14.01,2013-10-24 08:00:00,
2013-10-24 04:05:00,39.1,36.4,29.83,WNW,286,1.0,9.0,90,0.00,,---,0.00,VWS V14.01,2013-10-24 08:05:00,
2013-10-24 04:10:00,39.1,36.4,29.84,WNW,288,2.0,8.0,90,0.00,,---,0.00,VWS V14.01,2013-10-24 08:10:00,
2013-10-24 04:15:00,39.1,36.4,29.84,WNW,287,3.0,8.0,90,0.00,,---,0.00,VWS V14.01,2013-10-24 08:15:00,
2013-10-24 04:20:00,39.2,36.5,29.84,WNW,300,7.0,8.0,90,0.00,,---,0.00,VWS V14.01,2013-10-24 08:20:00,
2013-10-24 04:25:00,39.2,36.5,29.84,WNW,295,6.0,6.0,90,0.00,,---,0.00,VWS V14.01,2013-10-24 08:25:00,
2013-10-24 04:30:00,39.2,36.5,29.84,WNW,302,1.0,8.0,90,0.00,,---,0.00,VWS V14.01,2013-10-24 08:30:00,
2013-10-24 04:35:00,39.2,36.5,29.84,WNW,288,3.0,7.0,90,0.00,,---,0.00,VWS V14.01,2013-10-24 08:35:00,
2013-10-24 04:40:00,39.2,36.5,29.84,West,277,10.0,10.0,90,0.00,,---,0.00,VWS V14.01,2013-10-24 08:40:00,
2013-10-24 04:45:00,39.4,36.4,29.85,WNW,303,6.0,7.0,89,0.00,,---,0.00,VWS V14.01,2013-10-24 08:45:00,
2013-10-24 04:50:00,39.6,36.3,29.85,WNW,303,4.0,11.0,88,0.00,,---,0.00,VWS V14.01,2013-10-24 08:50:00,
2013-10-24 04:55:00,39.7,36.4,29.85,WNW,297,3.0,10.0,88,0.00,,---,0.00,VWS V14.01,2013-10-24 08:55:00,
2013-10-24 05:00:00,39.7,36.4,29.85,NW,307,7.0,11.0,88,0.00,,---,0.00,VWS V14.01,2013-10-24 09:00:00,
2013-10-24 05:05:00,39.8,36.5,29.85,WNW,297,6.0,9.0,88,0.00,,---,0.00,VWS V14.01,2013-10-24 09:05:00,
2013-10-24 05:10:00,39.8,36.2,29.85,NW,311,3.0,8.0,87,0.00,,---,0.00,VWS V14.01,2013-10-24 09:10:00,
2013-10-24 05:15:00,39.8,36.2,29.86,WNW,303,4.0,7.0,87,0.00,,---,0.00,VWS V14.01,2013-10-24 09:15:00,
2013-10-24 05:20:00,39.8,36.2,29.86,NW,307,2.0,7.0,87,0.00,,---,0.00,VWS V14.01,2013-10-24 09:20:00,
2013-10-24 05:25:00,39.8,36.2,29.86,WNW,290,2.0,7.0,87,0.00,,---,0.00,VWS V14.01,2013-10-24 09:25:00,
2013-10-24 05:30:00,39.8,36.2,29.86,WNW,302,3.0,8.0,87,0.00,,---,0.00,VWS V14.01,2013-10-24 09:30:00,
2013-10-24 05:35:00,39.7,36.2,29.86,WNW,298,3.0,7.0,87,0.00,,---,0.00,VWS V14.01,2013-10-24 09:35:00,
2013-10-24 05:40:00,39.7,36.2,29.87,WNW,299,4.0,6.0,87,0.00,,---,0.00,VWS V14.01,2013-10-24 09:40:00,
2013-10-24 05:45:00,39.6,36.1,29.87,WNW,291,3.0,7.0,87,0.00,,---,0.00,VWS V14.01,2013-10-24 09:45:00,
2013-10-24 05:50:00,39.6,36.1,29.87,NW,306,1.0,7.0,87,0.00,,---,0.00,VWS V14.01,2013-10-24 09:50:00,
2013-10-24 05:55:00,39.5,36.0,29.88,WNW,285,1.0,7.0,87,0.00,,---,0.00,VWS V14.01,2013-10-24 09:55:00,
2013-10-24 06:00:00,39.3,36.0,29.88,WNW,285,2.0,3.0,88,0.00,,---,0.00,VWS V14.01,2013-10-24 10:00:00,
2013-10-24 06:05:00,39.2,36.0,29.88,West,267,6.0,8.0,88,0.00,,---,0.00,VWS V14.01,2013-10-24 10:05:00,
2013-10-24 06:10:00,39.0,35.8,29.89,NW,304,6.0,9.0,88,0.00,,---,0.00,VWS V14.01,2013-10-24 10:10:00,
2013-10-24 06:15:00,38.9,35.9,29.89,WNW,287,0.0,8.0,89,0.00,,---,0.00,VWS V14.01,2013-10-24 10:15:00,
2013-10-24 06:20:00,38.8,35.8,29.89,WNW,292,3.0,8.0,89,0.00,,---,0.00,VWS V14.01,2013-10-24 10:20:00,
2013-10-24 06:25:00,38.7,35.7,29.89,WNW,293,1.0,4.0,89,0.00,,---,0.00,VWS V14.01,2013-10-24 10:25:00,
2013-10-24 06:30:00,38.6,35.6,29.90,NW,315,0.0,3.0,89,0.00,,---,0.00,VWS V14.01,2013-10-24 10:30:00,
2013-10-24 06:35:00,38.5,35.5,29.90,NW,315,0.0,1.0,89,0.00,,---,0.00,VWS V14.01,2013-10-24 10:35:00,
2013-10-24 06:40:00,38.3,35.3,29.90,NW,315,0.0,0.0,89,0.00,,---,0.00,VWS V14.01,2013-10-24 10:40:00,
2013-10-24 06:45:00,38.1,35.2,29.90,NW,315,0.0,0.0,89,0.00,,---,0.00,VWS V14.01,2013-10-24 10:45:00,
2013-10-24 06:50:00,37.9,35.0,29.90,NW,315,0.0,0.0,89,0.00,,---,0.00,VWS V14.01,2013-10-24 10:50:00,
2013-10-24 06:55:00,37.6,34.7,29.91,NW,315,0.0,1.0,89,0.00,,---,0.00,VWS V14.01,2013-10-24 10:55:00,
2013-10-24 07:00:00,37.5,34.6,29.91,NW,315,0.0,0.0,89,0.00,,---,0.00,VWS V14.01,2013-10-24 11:00:00,
2013-10-24 07:05:00,37.3,34.4,29.91,NW,315,0.0,0.0,89,0.00,,---,0.00,VWS V14.01,2013-10-24 11:05:00,
2013-10-24 07:10:00,37.1,34.2,29.91,NW,315,0.0,0.0,89,0.00,,---,0.00,VWS V14.01,2013-10-24 11:10:00,
2013-10-24 07:15:00,36.9,34.0,29.91,NW,315,0.0,0.0,89,0.00,,---,0.00,VWS V14.01,2013-10-24 11:15:00,
2013-10-24 07:20:00,36.7,33.8,29.91,NW,315,0.0,0.0,89,0.00,,---,0.00,VWS V14.01,2013-10-24 11:20:00,
2013-10-24 07:25:00,36.5,33.6,29.92,NW,315,0.0,0.0,89,0.00,,---,0.00,VWS V14.01,2013-10-24 11:25:00,
2013-10-24 07:30:00,36.4,33.8,29.92,NW,315,0.0,1.0,90,0.00,,---,0.00,VWS V14.01,2013-10-24 11:30:00,
2013-10-24 07:35:00,36.2,33.6,29.92,NW,315,0.0,0.0,90,0.00,,---,0.00,VWS V14.01,2013-10-24 11:35:00,
2013-10-24 07:40:00,36.1,33.5,29.92,NW,315,0.0,1.0,90,0.00,,---,0.00,VWS V14.01,2013-10-24 11:40:00,
2013-10-24 07:45:00,36.0,33.4,29.92,NW,315,1.0,3.0,90,0.00,,---,0.00,VWS V14.01,2013-10-24 11:45:00,
2013-10-24 07:50:00,35.9,33.5,29.92,NW,315,1.0,2.0,91,0.00,,---,0.00,VWS V14.01,2013-10-24 11:50:00,
2013-10-24 07:55:00,35.9,33.5,29.92,West,265,3.0,5.0,91,0.00,,---,0.00,VWS V14.01,2013-10-24 11:55:00,
2013-10-24 08:00:00,36.0,33.9,29.93,WNW,290,1.0,4.0,92,0.00,,---,0.00,VWS V14.01,2013-10-24 12:00:00,
2013-10-24 08:05:00,36.9,35.3,29.93,WNW,302,3.0,4.0,94,0.00,,---,0.00,VWS V14.01,2013-10-24 12:05:00,
2013-10-24 08:10:00,37.8,36.0,29.93,WNW,293,2.0,8.0,93,0.00,,---,0.00,VWS V14.01,2013-10-24 12:10:00,
2013-10-24 08:15:00,38.4,36.0,29.93,NW,304,2.0,7.0,91,0.00,,---,0.00,VWS V14.01,2013-10-24 12:15:00,
2013-10-24 08:20:00,38.9,36.2,29.93,NW,306,6.0,7.0,90,0.00,,---,0.00,VWS V14.01,2013-10-24 12:20:00,
2013-10-24 08:25:00,39.6,36.3,29.93,NW,307,4.0,11.0,88,0.00,,---,0.00,VWS V14.01,2013-10-24 12:25:00,
2013-10-24 08:30:00,40.2,36.7,29.93,WNW,282,7.0,7.0,87,0.00,,---,0.00,VWS V14.01,2013-10-24 12:30:00,
2013-10-24 08:35:00,40.8,36.9,29.94,WNW,287,11.0,13.0,86,0.00,,---,0.00,VWS V14.01,2013-10-24 12:35:00,
2013-10-24 08:40:00,41.2,36.7,29.94,WNW,299,3.0,9.0,84,0.00,,---,0.00,VWS V14.01,2013-10-24 12:40:00,
2013-10-24 08:45:00,41.9,37.7,29.94,WNW,291,0.0,9.0,85,0.00,,---,0.00,VWS V14.01,2013-10-24 12:45:00,
2013-10-24 08:50:00,42.5,37.7,29.94,NW,308,1.0,9.0,83,0.00,,---,0.00,VWS V14.01,2013-10-24 12:50:00,
2013-10-24 08:55:00,43.1,38.0,29.94,NW,318,5.0,10.0,82,0.00,,---,0.00,VWS V14.01,2013-10-24 12:55:00,
2013-10-24 09:00:00,43.4,38.0,29.94,WNW,292,3.0,12.0,81,0.00,,---,0.00,VWS V14.01,2013-10-24 13:00:00,
2013-10-24 09:04:00,43.9,38.1,29.94,NW,319,4.0,13.0,80,0.00,,---,0.00,VWS V14.01,2013-10-24 13:04:00,
2013-10-24 09:09:00,44.3,37.9,29.94,NW,309,3.0,9.0,78,0.00,,---,0.00,VWS V14.01,2013-10-24 13:09:00,
2013-10-24 09:14:00,44.6,37.2,29.94,WNW,294,6.0,16.0,75,0.00,,---,0.00,VWS V14.01,2013-10-24 13:14:00,
2013-10-24 09:19:00,44.9,37.1,29.95,NW,304,9.0,18.0,74,0.00,,---,0.00,VWS V14.01,2013-10-24 13:19:00,
2013-10-24 09:24:00,45.3,38.5,29.95,NW,323,8.0,8.0,77,0.00,,---,0.00,VWS V14.01,2013-10-24 13:24:00,
2013-10-24 09:29:00,45.6,37.1,29.95,NW,311,8.0,15.0,72,0.00,,---,0.00,VWS V14.01,2013-10-24 13:29:00,
2013-10-24 09:34:00,45.8,37.3,29.94,WNW,302,8.0,16.0,72,0.00,,---,0.00,VWS V14.01,2013-10-24 13:34:00,
2013-10-24 09:39:00,46.2,37.3,29.94,WNW,303,8.0,12.0,71,0.00,,---,0.00,VWS V14.01,2013-10-24 13:39:00,
2013-10-24 09:44:00,46.8,37.5,29.94,WNW,298,4.0,17.0,70,0.00,,---,0.00,VWS V14.01,2013-10-24 13:44:00,
2013-10-24 09:49:00,47.0,38.1,29.94,West,272,2.0,8.0,71,0.00,,---,0.00,VWS V14.01,2013-10-24 13:49:00,
2013-10-24 09:54:00,47.6,38.3,29.94,NW,304,6.0,12.0,70,0.00,,---,0.00,VWS V14.01,2013-10-24 13:54:00,
2013-10-24 09:59:00,48.0,38.0,29.94,NW,311,9.0,14.0,68,0.00,,---,0.00,VWS V14.01,2013-10-24 13:59:00,
2013-10-24 10:04:00,47.7,38.0,29.94,West,281,8.0,16.0,69,0.00,,---,0.00,VWS V14.01,2013-10-24 14:04:00,
2013-10-24 10:09:00,48.3,38.2,29.94,WNW,297,9.0,11.0,68,0.00,,---,0.00,VWS V14.01,2013-10-24 14:09:00,
2013-10-24 10:14:00,48.4,37.6,29.94,West,263,9.0,18.0,66,0.00,,---,0.00,VWS V14.01,2013-10-24 14:14:00,
2013-10-24 10:19:00,48.4,36.8,29.94,WNW,284,11.0,18.0,64,0.00,,---,0.00,VWS V14.01,2013-10-24 14:19:00,
2013-10-24 10:24:00,48.6,37.8,29.94,WNW,294,12.0,15.0,66,0.00,,---,0.00,VWS V14.01,2013-10-24 14:24:00,
2013-10-24 10:29:00,48.6,37.4,29.94,WNW,303,10.0,16.0,65,0.00,,---,0.00,VWS V14.01,2013-10-24 14:29:00,
2013-10-24 10:34:00,49.3,38.0,29.94,West,270,3.0,15.0,65,0.00,,---,0.00,VWS V14.01,2013-10-24 14:34:00,
2013-10-24 10:39:00,49.3,37.7,29.94,NW,309,12.0,16.0,64,0.00,,---,0.00,VWS V14.01,2013-10-24 14:39:00,
2013-10-24 10:44:00,49.7,37.6,29.93,WNW,287,6.0,12.0,63,0.00,,---,0.00,VWS V14.01,2013-10-24 14:44:00,
2013-10-24 10:49:00,50.3,37.8,29.93,West,277,5.0,13.0,62,0.00,,---,0.00,VWS V14.01,2013-10-24 14:49:00,
2013-10-24 10:54:00,50.5,37.2,29.93,WSW,254,6.0,9.0,60,0.00,,---,0.00,VWS V14.01,2013-10-24 14:54:00,
2013-10-24 10:59:00,51.3,38.7,29.93,WNW,296,3.0,11.0,62,0.00,,---,0.00,VWS V14.01,2013-10-24 14:59:00,
2013-10-24 11:04:00,51.6,37.3,29.93,SW,218,2.0,8.0,58,0.00,,---,0.00,VWS V14.01,2013-10-24 15:04:00,
2013-10-24 11:09:00,51.9,38.5,29.93,West,277,5.0,12.0,60,0.00,,---,0.00,VWS V14.01,2013-10-24 15:09:00,
2013-10-24 11:14:00,51.8,37.5,29.93,WNW,302,11.0,16.0,58,0.00,,---,0.00,VWS V14.01,2013-10-24 15:14:00,
2013-10-24 11:19:00,51.8,37.9,29.93,WNW,300,8.0,17.0,59,0.00,,---,0.00,VWS V14.01,2013-10-24 15:19:00,
2013-10-24 11:24:00,51.5,37.2,29.93,West,280,7.0,14.0,58,0.00,,---,0.00,VWS V14.01,2013-10-24 15:24:00,
2013-10-24 11:29:00,51.4,37.6,29.94,WNW,292,12.0,15.0,59,0.00,,---,0.00,VWS V14.01,2013-10-24 15:29:00,
2013-10-24 11:34:00,51.5,35.9,29.93,West,261,5.0,18.0,55,0.00,,---,0.00,VWS V14.01,2013-10-24 15:34:00,
2013-10-24 11:39:00,51.0,35.4,29.93,WNW,291,6.0,16.0,55,0.00,,---,0.00,VWS V14.01,2013-10-24 15:39:00,
2013-10-24 11:44:00,51.7,37.4,29.93,NNW,329,9.0,17.0,58,0.00,,---,0.00,VWS V14.01,2013-10-24 15:44:00,
2013-10-24 11:49:00,51.8,35.7,29.93,WNW,292,7.0,19.0,54,0.00,,---,0.00,VWS V14.01,2013-10-24 15:49:00,
2013-10-24 11:54:00,51.8,35.7,29.93,West,273,5.0,18.0,54,0.00,,---,0.00,VWS V14.01,2013-10-24 15:54:00,
2013-10-24 11:59:00,51.5,35.4,29.93,West,277,8.0,16.0,54,0.00,,---,0.00,VWS V14.01,2013-10-24 15:59:00,
2013-10-24 12:04:00,50.8,35.7,29.93,NW,314,7.0,12.0,56,0.00,,---,0.00,VWS V14.01,2013-10-24 16:04:00,
2013-10-24 12:09:00,51.2,34.7,29.93,West,267,14.0,16.0,53,0.00,,---,0.00,VWS V14.01,2013-10-24 16:09:00,
2013-10-24 12:14:00,52.4,35.3,29.93,WNW,286,6.0,16.0,52,0.00,,---,0.00,VWS V14.01,2013-10-24 16:14:00,
2013-10-24 12:19:00,53.0,37.3,29.92,West,274,3.0,13.0,55,0.00,,---,0.00,VWS V14.01,2013-10-24 16:19:00,
2013-10-24 12:24:00,52.7,35.1,29.92,West,278,4.0,11.0,51,0.00,,---,0.00,VWS V14.01,2013-10-24 16:24:00,
2013-10-24 12:29:00,52.6,35.5,29.92,NW,323,9.0,16.0,52,0.00,,---,0.00,VWS V14.01,2013-10-24 16:29:00,
2013-10-24 12:34:00,52.9,35.8,29.92,NW,304,4.0,12.0,52,0.00,,---,0.00,VWS V14.01,2013-10-24 16:34:00,
2013-10-24 12:39:00,52.2,34.6,29.91,WNW,286,4.0,13.0,51,0.00,,---,0.00,VWS V14.01,2013-10-24 16:39:00,
2013-10-24 12:40:00,52.4,36.7,29.91,WNW,292,8.0,15.0,55,0.00,,---,0.00,VWS V14.01,2013-10-24 16:40:00,
2013-10-24 12:45:00,52.9,34.3,29.91,WNW,292,10.0,22.0,49,0.00,,---,0.00,VWS V14.01,2013-10-24 16:45:00,
2013-10-24 12:50:00,52.6,35.0,29.91,WNW,292,8.0,21.0,51,0.00,,---,0.00,VWS V14.01,2013-10-24 16:50:00,
2013-10-24 12:55:00,53.1,35.5,29.90,WNW,292,8.0,19.0,51,0.00,,---,0.00,VWS V14.01,2013-10-24 16:55:00,
2013-10-24 13:00:00,53.6,34.9,29.90,WNW,292,11.0,19.0,49,0.00,,---,0.00,VWS V14.01,2013-10-24 17:00:00,
2013-10-24 13:05:00,53.5,34.3,29.90,WNW,292,10.0,19.0,48,0.00,,---,0.00,VWS V14.01,2013-10-24 17:05:00,
2013-10-24 13:10:00,53.2,34.0,29.90,NW,315,11.0,21.0,48,0.00,,---,0.00,VWS V14.01,2013-10-24 17:10:00,
2013-10-24 13:15:00,53.2,34.5,29.89,WNW,292,9.0,18.0,49,0.00,,---,0.00,VWS V14.01,2013-10-24 17:15:00,
2013-10-24 13:20:00,53.3,34.1,29.89,WNW,292,9.0,17.0,48,0.00,,---,0.00,VWS V14.01,2013-10-24 17:20:00,
2013-10-24 13:25:00,53.6,34.4,29.89,WNW,292,10.0,18.0,48,0.00,,---,0.00,VWS V14.01,2013-10-24 17:25:00,
2013-10-24 13:30:00,54.0,34.8,29.89,WNW,292,6.0,13.0,48,0.00,,---,0.00,VWS V14.01,2013-10-24 17:30:00,
2013-10-24 13:35:00,54.8,34.4,29.89,NW,315,7.0,13.0,46,0.00,,---,0.00,VWS V14.01,2013-10-24 17:35:00,
2013-10-24 13:40:00,54.1,33.2,29.89,WNW,292,9.0,20.0,45,0.00,,---,0.00,VWS V14.01,2013-10-24 17:40:00,
2013-10-24 13:45:00,52.7,33.0,29.89,WNW,292,8.0,17.0,47,0.00,,---,0.00,VWS V14.01,2013-10-24 17:45:00,
2013-10-24 13:50:00,51.9,32.3,29.89,WNW,292,8.0,14.0,47,0.00,,---,0.00,VWS V14.01,2013-10-24 17:50:00,
2013-10-24 13:55:00,51.5,32.5,29.89,WNW,292,9.0,17.0,48,0.00,,---,0.00,VWS V14.01,2013-10-24 17:55:00,
2013-10-24 14:00:00,51.5,32.5,29.89,WNW,292,8.0,14.0,48,0.00,,---,0.00,VWS V14.01,2013-10-24 18:00:00,
2013-10-24 14:05:00,51.7,32.1,29.89,WNW,292,8.0,18.0,47,0.00,,---,0.00,VWS V14.01,2013-10-24 18:05:00,
2013-10-24 14:10:00,51.8,32.2,29.89,WNW,292,9.0,18.0,47,0.00,,---,0.00,VWS V14.01,2013-10-24 18:10:00,
2013-10-24 14:15:00,51.6,31.0,29.89,WNW,292,9.0,16.0,45,0.00,,---,0.00,VWS V14.01,2013-10-24 18:15:00,
2013-10-24 14:20:00,52.1,32.5,29.89,WNW,292,7.0,16.0,47,0.00,,---,0.00,VWS V14.01,2013-10-24 18:20:00,
2013-10-24 14:25:00,52.1,31.4,29.89,WNW,292,8.0,19.0,45,0.00,,---,0.00,VWS V14.01,2013-10-24 18:25:00,
2013-10-24 14:30:00,51.7,31.6,29.89,WNW,292,9.0,17.0,46,0.00,,---,0.00,VWS V14.01,2013-10-24 18:30:00,
2013-10-24 14:35:00,51.5,30.9,29.89,WNW,292,6.0,16.0,45,0.00,,---,0.00,VWS V14.01,2013-10-24 18:35:00,
2013-10-24 14:40:00,51.9,30.7,29.89,WNW,292,8.0,15.0,44,0.00,,---,0.00,VWS V14.01,2013-10-24 18:40:00,
2013-10-24 14:45:00,52.1,30.9,29.89,WNW,292,5.0,14.0,44,0.00,,---,0.00,VWS V14.01,2013-10-24 18:45:00,
2013-10-24 14:50:00,52.2,31.0,29.89,WNW,292,4.0,14.0,44,0.00,,---,0.00,VWS V14.01,2013-10-24 18:50:00,
2013-10-24 14:55:00,52.4,31.1,29.89,West,270,6.0,18.0,44,0.00,,---,0.00,VWS V14.01,2013-10-24 18:55:00,
2013-10-24 15:00:00,51.8,31.1,29.89,West,270,5.0,13.0,45,0.00,,---,0.00,VWS V14.01,2013-10-24 19:00:00,
2013-10-24 15:05:00,51.3,31.8,29.90,WNW,292,6.0,17.0,47,0.00,,---,0.00,VWS V14.01,2013-10-24 19:05:00,
2013-10-24 15:10:00,51.0,32.5,29.90,WNW,292,7.0,14.0,49,0.00,,---,0.00,VWS V14.01,2013-10-24 19:10:00,
2013-10-24 15:15:00,50.7,32.8,29.90,WNW,292,7.0,15.0,50,0.00,,---,0.00,VWS V14.01,2013-10-24 19:15:00,
2013-10-24 15:20:00,50.5,31.6,29.90,WNW,292,8.0,15.0,48,0.00,,---,0.00,VWS V14.01,2013-10-24 19:20:00,
2013-10-24 15:25:00,50.2,31.8,29.90,WNW,292,9.0,17.0,49,0.00,,---,0.00,VWS V14.01,2013-10-24 19:25:00,
2013-10-24 15:30:00,50.0,31.1,29.90,WNW,292,10.0,16.0,48,0.00,,---,0.00,VWS V14.01,2013-10-24 19:30:00,
2013-10-24 15:35:00,50.3,31.4,29.90,WNW,292,8.0,18.0,48,0.00,,---,0.00,VWS V14.01,2013-10-24 19:35:00,
2013-10-24 15:40:00,50.3,30.3,29.90,WNW,292,8.0,17.0,46,0.00,,---,0.00,VWS V14.01,2013-10-24 19:40:00,
2013-10-24 15:45:00,50.3,31.9,29.91,WNW,292,7.0,14.0,49,0.00,,---,0.00,VWS V14.01,2013-10-24 19:45:00,
2013-10-24 15:50:00,51.0,32.0,29.90,WNW,292,6.0,11.0,48,0.00,,---,0.00,VWS V14.01,2013-10-24 19:50:00,
2013-10-24 15:55:00,50.8,31.3,29.90,WNW,292,8.0,17.0,47,0.00,,---,0.00,VWS V14.01,2013-10-24 19:55:00,
2013-10-24 16:00:00,51.3,31.2,29.90,WNW,292,6.0,16.0,46,0.00,,---,0.00,VWS V14.01,2013-10-24 20:00:00,
2013-10-24 16:05:00,51.5,30.9,29.90,WNW,292,8.0,15.0,45,0.00,,---,0.00,VWS V14.01,2013-10-24 20:05:00,
2013-10-24 16:10:00,51.0,31.5,29.90,WNW,292,9.0,23.0,47,0.00,,---,0.00,VWS V14.01,2013-10-24 20:10:00,
2013-10-24 16:15:00,50.9,31.4,29.91,WNW,292,7.0,14.0,47,0.00,,---,0.00,VWS V14.01,2013-10-24 20:15:00,
2013-10-24 16:20:00,51.0,31.5,29.91,WNW,292,8.0,14.0,47,0.00,,---,0.00,VWS V14.01,2013-10-24 20:20:00,
2013-10-24 16:25:00,50.8,31.8,29.91,WNW,292,5.0,12.0,48,0.00,,---,0.00,VWS V14.01,2013-10-24 20:25:00,
2013-10-24 16:30:00,50.5,31.0,29.91,WNW,292,7.0,19.0,47,0.00,,---,0.00,VWS V14.01,2013-10-24 20:30:00,
2013-10-24 16:35:00,50.3,30.9,29.91,West,270,6.0,13.0,47,0.00,,---,0.00,VWS V14.01,2013-10-24 20:35:00,
2013-10-24 16:40:00,50.3,30.9,29.91,WNW,292,5.0,13.0,47,0.00,,---,0.00,VWS V14.01,2013-10-24 20:40:00,
2013-10-24 16:45:00,50.3,30.3,29.91,WNW,292,5.0,11.0,46,0.00,,---,0.00,VWS V14.01,2013-10-24 20:45:00,
2013-10-24 16:50:00,50.2,30.8,29.92,West,270,4.0,11.0,47,0.00,,---,0.00,VWS V14.01,2013-10-24 20:50:00,
2013-10-24 16:55:00,50.1,30.1,29.92,West,270,4.0,13.0,46,0.00,,---,0.00,VWS V14.01,2013-10-24 20:55:00,
2013-10-24 17:00:00,49.9,30.5,29.92,WNW,292,3.0,9.0,47,0.00,,---,0.00,VWS V14.01,2013-10-24 21:00:00,
2013-10-24 17:05:00,49.6,30.2,29.92,NW,315,4.0,12.0,47,0.00,,---,0.00,VWS V14.01,2013-10-24 21:05:00,
2013-10-24 17:10:00,49.6,30.7,29.92,WNW,292,5.0,11.0,48,0.00,,---,0.00,VWS V14.01,2013-10-24 21:10:00,
2013-10-24 17:15:00,49.2,30.4,29.92,WNW,292,2.0,8.0,48,0.00,,---,0.00,VWS V14.01,2013-10-24 21:15:00,
2013-10-24 17:20:00,48.8,30.5,29.92,NNW,338,2.0,9.0,49,0.00,,---,0.00,VWS V14.01,2013-10-24 21:20:00,
2013-10-24 17:25:00,48.7,30.4,29.93,WNW,292,3.0,11.0,49,0.00,,---,0.00,VWS V14.01,2013-10-24 21:25:00,
2013-10-24 17:30:00,48.6,30.8,29.93,West,270,2.0,7.0,50,0.00,,---,0.00,VWS V14.01,2013-10-24 21:30:00,
2013-10-24 17:35:00,48.5,31.2,29.93,WNW,292,2.0,9.0,51,0.00,,---,0.00,VWS V14.01,2013-10-24 21:35:00,
2013-10-24 17:40:00,48.5,31.2,29.93,WNW,292,3.0,13.0,51,0.00,,---,0.00,VWS V14.01,2013-10-24 21:40:00,
2013-10-24 17:45:00,48.5,31.7,29.93,WNW,292,3.0,8.0,52,0.00,,---,0.00,VWS V14.01,2013-10-24 21:45:00,
2013-10-24 17:50:00,48.3,31.5,29.93,West,270,3.0,8.0,52,0.00,,---,0.00,VWS V14.01,2013-10-24 21:50:00,
2013-10-24 17:55:00,48.1,31.3,29.93,WNW,292,3.0,10.0,52,0.00,,---,0.00,VWS V14.01,2013-10-24 21:55:00,
2013-10-24 18:00:00,47.7,31.4,29.93,West,270,1.0,7.0,53,0.00,,---,0.00,VWS V14.01,2013-10-24 22:00:00,
2013-10-24 18:05:00,47.3,31.5,29.94,West,270,1.0,5.0,54,0.00,,---,0.00,VWS V14.01,2013-10-24 22:05:00,
2013-10-24 18:10:00,46.9,31.1,29.94,West,270,0.0,4.0,54,0.00,,---,0.00,VWS V14.01,2013-10-24 22:10:00,
2013-10-24 18:15:00,46.6,31.8,29.94,West,270,1.0,4.0,56,0.00,,---,0.00,VWS V14.01,2013-10-24 22:15:00,
2013-10-24 18:20:00,46.3,31.9,29.95,West,270,1.0,6.0,57,0.00,,---,0.00,VWS V14.01,2013-10-24 22:20:00,
2013-10-24 18:25:00,46.1,31.7,29.95,West,270,1.0,4.0,57,0.00,,---,0.00,VWS V14.01,2013-10-24 22:25:00,
2013-10-24 18:30:00,45.9,32.0,29.95,West,270,0.0,2.0,58,0.00,,---,0.00,VWS V14.01,2013-10-24 22:30:00,
2013-10-24 18:35:00,45.7,31.8,29.95,WNW,292,0.0,3.0,58,0.00,,---,0.00,VWS V14.01,2013-10-24 22:35:00,
2013-10-24 18:40:00,45.6,31.7,29.96,WNW,292,0.0,0.0,58,0.00,,---,0.00,VWS V14.01,2013-10-24 22:40:00,
2013-10-24 18:45:00,45.5,32.0,29.96,WNW,292,0.0,1.0,59,0.00,,---,0.00,VWS V14.01,2013-10-24 22:45:00,
2013-10-24 18:50:00,45.4,31.9,29.96,WNW,292,0.0,2.0,59,0.00,,---,0.00,VWS V14.01,2013-10-24 22:50:00,
2013-10-24 18:55:00,45.3,31.8,29.96,WNW,292,0.0,1.0,59,0.00,,---,0.00,VWS V14.01,2013-10-24 22:55:00,
2013-10-24 19:00:00,45.4,31.9,29.97,WNW,292,0.0,3.0,59,0.00,,---,0.00,VWS V14.01,2013-10-24 23:00:00,
2013-10-24 19:05:00,45.4,31.5,29.97,WNW,292,1.0,3.0,58,0.00,,---,0.00,VWS V14.01,2013-10-24 23:05:00,
2013-10-24 19:10:00,45.3,31.8,29.97,WNW,292,0.0,2.0,59,0.00,,---,0.00,VWS V14.01,2013-10-24 23:10:00,
2013-10-24 19:15:00,45.1,31.6,29.97,West,270,1.0,4.0,59,0.00,,---,0.00,VWS V14.01,2013-10-24 23:15:00,
2013-10-24 19:20:00,44.9,31.5,29.98,West,270,0.0,4.0,59,0.00,,---,0.00,VWS V14.01,2013-10-24 23:20:00,
2013-10-24 19:25:00,44.7,31.7,29.98,West,270,1.0,5.0,60,0.00,,---,0.00,VWS V14.01,2013-10-24 23:25:00,
2013-10-24 19:30:00,44.6,32.0,29.98,WNW,292,1.0,6.0,61,0.00,,---,0.00,VWS V14.01,2013-10-24 23:30:00,
2013-10-24 19:35:00,44.5,31.9,29.98,West,270,1.0,6.0,61,0.00,,---,0.00,VWS V14.01,2013-10-24 23:35:00,
2013-10-24 19:40:00,44.3,31.7,29.98,WNW,292,2.0,8.0,61,0.00,,---,0.00,VWS V14.01,2013-10-24 23:40:00,
2013-10-24 19:45:00,44.3,31.7,29.98,WNW,292,3.0,7.0,61,0.00,,---,0.00,VWS V14.01,2013-10-24 23:45:00,
2013-10-24 19:50:00,44.3,31.7,29.98,WNW,292,1.0,3.0,61,0.00,,---,0.00,VWS V14.01,2013-10-24 23:50:00,
2013-10-24 20:03:00,44.1,31.9,29.98,WNW,292,4.0,10.0,62,0.00,,---,0.00,VWS V14.01,2013-10-25 00:03:00,
2013-10-24 20:08:00,43.6,31.5,29.99,WNW,296,0.0,2.0,62,0.00,,---,0.00,VWS V14.01,2013-10-25 00:08:00,
2013-10-24 20:13:00,43.3,31.2,29.99,WNW,296,0.0,2.0,62,0.00,,---,0.00,VWS V14.01,2013-10-25 00:13:00,
2013-10-24 20:18:00,43.0,31.3,29.99,WNW,296,0.0,1.0,63,0.00,,---,0.00,VWS V14.01,2013-10-25 00:18:00,
2013-10-24 20:23:00,42.9,30.8,29.99,WNW,296,0.0,1.0,62,0.00,,---,0.00,VWS V14.01,2013-10-25 00:23:00,
2013-10-24 20:28:00,42.5,30.8,29.99,WNW,296,0.0,1.0,63,0.00,,---,0.00,VWS V14.01,2013-10-25 00:28:00,
2013-10-24 20:33:00,42.3,30.6,30.00,WNW,296,0.0,0.0,63,0.00,,---,0.00,VWS V14.01,2013-10-25 00:33:00,
2013-10-24 20:38:00,42.1,31.2,30.00,WNW,296,0.0,0.0,65,0.00,,---,0.00,VWS V14.01,2013-10-25 00:38:00,
2013-10-24 20:43:00,41.9,31.0,30.00,WNW,296,0.0,1.0,65,0.00,,---,0.00,VWS V14.01,2013-10-25 00:43:00,
2013-10-24 20:48:00,41.7,30.8,30.00,WNW,296,0.0,1.0,65,0.00,,---,0.00,VWS V14.01,2013-10-25 00:48:00,
2013-10-24 20:53:00,41.4,30.9,30.00,WNW,296,0.0,0.0,66,0.00,,---,0.00,VWS V14.01,2013-10-25 00:53:00,
2013-10-24 20:58:00,41.0,31.3,30.00,WNW,296,0.0,0.0,68,0.00,,---,0.00,VWS V14.01,2013-10-25 00:58:00,
2013-10-24 21:03:00,40.5,31.5,30.00,WNW,296,0.0,0.0,70,0.00,,---,0.00,VWS V14.01,2013-10-25 01:03:00,
2013-10-24 21:08:00,40.0,31.4,30.01,WNW,296,0.0,0.0,71,0.00,,---,0.00,VWS V14.01,2013-10-25 01:08:00,
2013-10-24 21:13:00,39.7,31.1,30.01,WNW,296,0.0,0.0,71,0.00,,---,0.00,VWS V14.01,2013-10-25 01:13:00,
2013-10-24 21:18:00,39.7,31.1,30.01,WNW,296,0.0,0.0,71,0.00,,---,0.00,VWS V14.01,2013-10-25 01:18:00,
2013-10-24 21:23:00,39.7,31.1,30.01,WNW,296,0.0,1.0,71,0.00,,---,0.00,VWS V14.01,2013-10-25 01:23:00,
2013-10-24 21:28:00,39.7,31.1,30.01,WNW,296,1.0,1.0,71,0.00,,---,0.00,VWS V14.01,2013-10-25 01:28:00,
2013-10-24 21:33:00,39.7,31.1,30.01,WNW,296,1.0,1.0,71,0.00,,---,0.00,VWS V14.01,2013-10-25 01:33:00,
2013-10-24 21:38:00,39.7,30.7,30.01,WNW,296,1.0,2.0,70,0.00,,---,0.00,VWS V14.01,2013-10-25 01:38:00,
2013-10-24 21:43:00,39.6,31.0,30.01,WNW,296,0.0,3.0,71,0.00,,---,0.00,VWS V14.01,2013-10-25 01:43:00,
2013-10-24 21:48:00,39.7,31.1,30.02,WNW,296,2.0,2.0,71,0.00,,---,0.00,VWS V14.01,2013-10-25 01:48:00,
2013-10-24 21:53:00,39.7,31.1,30.02,WNW,296,0.0,3.0,71,0.00,,---,0.00,VWS V14.01,2013-10-25 01:53:00,
2013-10-24 21:58:00,39.7,31.1,30.02,WNW,296,0.0,2.0,71,0.00,,---,0.00,VWS V14.01,2013-10-25 01:58:00,
2013-10-24 22:03:00,39.7,31.1,30.02,WNW,296,0.0,1.0,71,0.00,,---,0.00,VWS V14.01,2013-10-25 02:03:00,
2013-10-24 22:08:00,39.7,31.1,30.02,WNW,296,0.0,1.0,71,0.00,,---,0.00,VWS V14.01,2013-10-25 02:08:00,
2013-10-24 22:13:00,39.7,31.1,30.02,WNW,296,0.0,0.0,71,0.00,,---,0.00,VWS V14.01,2013-10-25 02:13:00,
2013-10-24 22:18:00,39.6,31.0,30.03,WNW,296,1.0,1.0,71,0.00,,---,0.00,VWS V14.01,2013-10-25 02:18:00,
2013-10-24 22:23:00,39.4,31.1,30.02,WNW,296,0.0,0.0,72,0.00,,---,0.00,VWS V14.01,2013-10-25 02:23:00,
2013-10-24 22:28:00,39.2,31.0,30.02,WNW,296,0.0,2.0,72,0.00,,---,0.00,VWS V14.01,2013-10-25 02:28:00,
2013-10-24 22:33:00,38.9,31.0,30.02,WNW,296,0.0,1.0,73,0.00,,---,0.00,VWS V14.01,2013-10-25 02:33:00,
2013-10-24 22:38:00,38.8,30.9,30.03,WNW,296,0.0,0.0,73,0.00,,---,0.00,VWS V14.01,2013-10-25 02:38:00,
2013-10-24 22:43:00,38.7,30.8,30.03,WNW,296,0.0,0.0,73,0.00,,---,0.00,VWS V14.01,2013-10-25 02:43:00,
2013-10-24 22:48:00,38.5,31.0,30.03,WNW,296,0.0,0.0,74,0.00,,---,0.00,VWS V14.01,2013-10-25 02:48:00,
2013-10-24 22:53:00,38.3,30.8,30.03,WNW,296,0.0,0.0,74,0.00,,---,0.00,VWS V14.01,2013-10-25 02:53:00,
2013-10-24 22:58:00,38.2,31.0,30.03,WNW,296,1.0,2.0,75,0.00,,---,0.00,VWS V14.01,2013-10-25 02:58:00,
2013-10-24 23:03:00,38.1,30.9,30.03,WNW,296,3.0,4.0,75,0.00,,---,0.00,VWS V14.01,2013-10-25 03:03:00,
2013-10-24 23:08:00,38.2,31.0,30.03,WNW,296,2.0,3.0,75,0.00,,---,0.00,VWS V14.01,2013-10-25 03:08:00,
2013-10-24 23:13:00,38.2,31.0,30.03,WNW,296,2.0,3.0,75,0.00,,---,0.00,VWS V14.01,2013-10-25 03:13:00,
2013-10-24 23:18:00,38.1,30.9,30.03,WNW,296,4.0,4.0,75,0.00,,---,0.00,VWS V14.01,2013-10-25 03:18:00,
2013-10-24 23:23:00,38.1,31.2,30.03,WNW,296,3.0,4.0,76,0.00,,---,0.00,VWS V14.01,2013-10-25 03:23:00,
2013-10-24 23:28:00,38.0,31.1,30.03,WNW,296,2.0,4.0,76,0.00,,---,0.00,VWS V14.01,2013-10-25 03:28:00,
2013-10-24 23:33:00,38.0,31.1,30.03,WNW,296,1.0,6.0,76,0.00,,---,0.00,VWS V14.01,2013-10-25 03:33:00,
2013-10-24 23:38:00,38.0,31.1,30.03,WNW,296,1.0,4.0,76,0.00,,---,0.00,VWS V14.01,2013-10-25 03:38:00,
2013-10-24 23:43:00,37.9,31.0,30.03,WNW,296,0.0,1.0,76,0.00,,---,0.00,VWS V14.01,2013-10-25 03:43:00,
2013-10-24 23:48:00,37.8,30.9,30.03,WNW,296,0.0,4.0,76,0.00,,---,0.00,VWS V14.01,2013-10-25 03:48:00,
2013-10-24 23:53:00,37.7,30.8,30.03,WNW,296,0.0,0.0,76,0.00,,---,0.00,VWS V14.01,2013-10-25 03:53:00,
2013-10-24 23:58:00,37.6,30.7,30.03,WNW,296,0.0,2.0,76,0.00,,---,0.00,VWS V14.01,2013-10-25 03:58:00,